Location: Red Rock Farm
(35.2100°N, 97.2200°W)
Time: 20:02:43
(UTC-05:00)

ISS - All Passes

Search period start: 21 April 2018 00:00
Search period end: 01 May 2018 00:00
Orbit: 403 x 406 km, 51.6° (Epoch: 22 April)

Date Brightness Start Highest point End Pass type
(mag) Time Alt. Az. Time Alt. Az. Time Alt. Az.
21 Apr - 09:54:23 10° SW 09:57:37 70° NW 10:00:53 10° NE daylight
21 Apr - 11:33:40 10° NW 11:34:37 11° NNW 11:35:34 10° N daylight
21 Apr - 16:24:55 10° NNW 16:27:53 30° NE 16:30:50 10° E daylight
21 Apr - 18:01:40 10° WNW 18:04:12 21° SW 18:06:45 10° S daylight
22 Apr - 09:02:15 10° SSW 09:05:26 51° SE 09:08:36 10° ENE daylight
22 Apr - 10:39:55 10° WNW 10:42:07 17° NNW 10:44:19 10° NNE daylight
22 Apr - 15:33:06 10° NNW 15:35:29 18° NNE 15:37:51 10° ENE daylight
22 Apr - 17:08:58 10° WNW 17:12:07 44° SW 17:15:15 10° SSE daylight
23 Apr - 08:10:38 10° S 08:13:18 23° SE 08:15:58 10° ENE daylight
23 Apr - 09:46:50 10° W 09:49:41 27° NW 09:52:33 10° NNE daylight
23 Apr - 14:41:40 10° N 14:42:59 12° NNE 14:44:18 10° NE daylight
23 Apr - 16:16:38 10° NW 16:19:55 81° NE 16:23:11 10° SE daylight
24 Apr - 07:20:08 10° SSE 07:21:14 11° SE 07:22:22 10° ESE daylight
24 Apr - 08:54:09 10° WSW 08:57:21 53° NW 09:00:33 10° NE daylight
24 Apr - 15:24:31 10° NNW 15:27:37 38° NE 15:30:42 10° ESE daylight
24 Apr - 17:01:45 10° W 17:03:51 16° SW 17:05:57 10° SSW daylight
25 Apr - 08:01:51 10° SW 08:05:05 70° SE 08:08:20 10° NE daylight
25 Apr - 09:40:01 10° WNW 09:41:52 14° NNW 09:43:44 10° N daylight
25 Apr - 14:32:36 10° NNW 14:35:13 22° NNE 14:37:49 10° E daylight
25 Apr - 16:08:45 10° WNW 16:11:44 33° SW 16:14:43 10° SSE daylight
26 Apr - 07:10:00 10° SSW 07:12:53 30° SE 07:15:49 10° ENE daylight
26 Apr - 08:46:43 10° W 08:49:23 23° NNW 08:52:03 10° NNE daylight
26 Apr - 13:40:56 10° N 13:42:43 14° NNE 13:44:29 10° ENE daylight
26 Apr - 15:16:16 10° NW 15:19:32 76° SW 15:22:47 10° SE daylight
27 Apr - 06:18:51 10° SSE 06:20:46 15° SE 06:22:42 10° E daylight
27 Apr - 07:53:52 10° WSW 07:56:58 41° NW 08:00:05 10° NE daylight
27 Apr - 14:24:02 10° NW 14:27:13 49° NE 14:30:25 10° ESE daylight
27 Apr - 16:01:54 10° W 16:03:22 12° SW 16:04:49 10° SSW daylight
28 Apr - 07:01:23 10° SW 07:04:38 88° NW 07:07:54 10° NE daylight
28 Apr - 08:40:05 10° NW 08:41:32 12° NNW 08:42:58 10° N daylight
28 Apr - 13:32:00 10° NNW 13:34:49 26° NE 13:37:38 10° E daylight
28 Apr - 15:08:28 10° WNW 15:11:14 25° SW 15:14:00 10° S daylight
29 Apr - 06:09:18 10° SSW 06:12:23 40° SE 06:15:28 10° ENE visible
29 Apr - 07:46:32 10° W 07:48:58 19° NNW 07:51:24 10° NNE daylight
29 Apr - 12:40:12 10° N 12:42:19 16° NNE 12:44:26 10° ENE daylight
29 Apr - 14:15:48 10° NW 14:19:02 57° SW 14:22:14 10° SE daylight
30 Apr - 05:17:49 10° S 05:20:11 19° SE 05:22:35 10° E visible
30 Apr - 06:53:30 10° WSW 06:56:29 32° NW 06:59:29 10° NNE daylight
30 Apr - 11:49:02 10° NNE 11:49:42 10° NNE 11:50:22 10° NE daylight
30 Apr - 13:23:27 10° NW 13:26:43 64° NE 13:29:57 10° ESE daylight
